TimeCDT,TemperatureF,Dew PointF,Humidity,Sea Level PressureIn,VisibilityMPH,Wind Direction,Wind SpeedMPH,Gust SpeedMPH,PrecipitationIn,Events,Conditions,WindDirDegrees,DateUTC
12:15 AM,44.6,40.1,84,29.88,10.0,WNW,8.1,-,N/A,,Clear,290,2013-10-18 05:15:00
12:35 AM,44.6,40.6,86,29.89,10.0,WNW,11.5,17.3,N/A,,Scattered Clouds,290,2013-10-18 05:35:00
12:55 AM,44.6,39.6,82,29.89,10.0,WNW,12.7,24.2,N/A,,Overcast,300,2013-10-18 05:55:00
1:15 AM,44.1,38.8,82,29.89,10.0,NW,10.4,20.7,N/A,,Overcast,310,2013-10-18 06:15:00
1:35 AM,43.9,38.8,82,29.90,10.0,WNW,11.5,19.6,N/A,,Overcast,290,2013-10-18 06:35:00
1:55 AM,43.2,37.8,81,29.90,10.0,WNW,15.0,25.3,N/A,,Overcast,290,2013-10-18 06:55:00
2:15 AM,42.8,36.9,80,29.91,10.0,WNW,15.0,23.0,N/A,,Overcast,290,2013-10-18 07:15:00
2:35 AM,42.3,36.9,81,29.91,10.0,WNW,11.5,18.4,N/A,,Overcast,290,2013-10-18 07:35:00
2:55 AM,42.8,37.0,80,29.91,10.0,WNW,11.5,-,N/A,,Overcast,300,2013-10-18 07:55:00
3:15 AM,42.8,36.7,79,29.91,10.0,WNW,11.5,20.7,N/A,,Overcast,300,2013-10-18 08:15:00
3:35 AM,42.8,36.5,78,29.91,10.0,WNW,11.5,16.1,N/A,,Overcast,300,2013-10-18 08:35:00
3:55 AM,42.4,36.5,79,29.91,10.0,WNW,11.5,17.3,N/A,,Overcast,300,2013-10-18 08:55:00
4:15 AM,42.3,36.1,79,29.91,10.0,WNW,12.7,18.4,N/A,,Overcast,300,2013-10-18 09:15:00
4:35 AM,42.3,35.6,77,29.91,10.0,WNW,12.7,17.3,N/A,,Overcast,290,2013-10-18 09:35:00
4:55 AM,42.1,35.1,76,29.92,10.0,NW,15.0,20.7,N/A,,Overcast,310,2013-10-18 09:55:00
5:15 AM,42.3,35.1,76,29.92,10.0,WNW,12.7,19.6,N/A,,Overcast,300,2013-10-18 10:15:00
5:35 AM,42.3,35.1,76,29.93,10.0,WNW,12.7,23.0,N/A,,Overcast,300,2013-10-18 10:35:00
5:55 AM,42.3,34.7,75,29.93,10.0,NW,13.8,24.2,N/A,,Overcast,310,2013-10-18 10:55:00
6:15 AM,42.1,34.9,76,29.94,10.0,NW,12.7,17.3,N/A,,Overcast,310,2013-10-18 11:15:00
6:35 AM,42.3,35.2,76,29.94,10.0,WNW,9.2,-,N/A,,Overcast,300,2013-10-18 11:35:00
6:55 AM,42.3,35.6,77,29.94,10.0,WNW,9.2,-,N/A,,Mostly Cloudy,300,2013-10-18 11:55:00
7:15 AM,42.6,35.8,77,29.95,10.0,WNW,6.9,-,N/A,,Overcast,300,2013-10-18 12:15:00
7:35 AM,42.8,35.8,76,29.97,10.0,West,6.9,-,N/A,,Overcast,280,2013-10-18 12:35:00
7:55 AM,42.8,35.2,75,29.98,10.0,WNW,10.4,16.1,N/A,,Overcast,290,2013-10-18 12:55:00
8:15 AM,42.8,34.7,73,29.98,10.0,WNW,11.5,18.4,N/A,,Overcast,300,2013-10-18 13:15:00
8:35 AM,43.2,34.9,73,29.98,10.0,NW,10.4,19.6,N/A,,Mostly Cloudy,320,2013-10-18 13:35:00
8:55 AM,43.2,34.7,72,29.98,10.0,NW,13.8,17.3,N/A,,Mostly Cloudy,310,2013-10-18 13:55:00
9:15 AM,43.2,34.7,72,30.00,10.0,NW,9.2,16.1,N/A,,Mostly Cloudy,320,2013-10-18 14:15:00
9:35 AM,43.7,34.9,71,29.99,10.0,NW,8.1,-,N/A,,Mostly Cloudy,310,2013-10-18 14:35:00
9:55 AM,43.9,35.2,72,30.00,10.0,NW,10.4,16.1,N/A,,Mostly Cloudy,310,2013-10-18 14:55:00
10:15 AM,44.1,35.2,71,30.00,10.0,NW,10.4,-,N/A,,Mostly Cloudy,320,2013-10-18 15:15:00
10:35 AM,44.2,35.4,71,30.00,10.0,NW,10.4,-,N/A,,Overcast,310,2013-10-18 15:35:00
10:55 AM,45.9,36.3,69,30.00,10.0,NW,11.5,17.3,N/A,,Overcast,310,2013-10-18 15:55:00
11:15 AM,48.2,36.7,64,30.01,10.0,NW,9.2,-,N/A,,Mostly Cloudy,320,2013-10-18 16:15:00
11:35 AM,49.5,36.9,62,30.01,10.0,WNW,10.4,-,N/A,,Mostly Cloudy,290,2013-10-18 16:35:00
11:55 AM,49.5,34.7,57,30.01,10.0,NW,9.2,-,N/A,,Mostly Cloudy,310,2013-10-18 16:55:00
12:15 PM,49.5,33.4,54,30.00,10.0,NW,9.2,16.1,N/A,,Mostly Cloudy,310,2013-10-18 17:15:00
12:35 PM,49.5,32.5,52,30.00,10.0,NW,8.1,-,N/A,,Scattered Clouds,310,2013-10-18 17:35:00
12:55 PM,51.3,33.1,50,30.00,10.0,WNW,11.5,17.3,N/A,,Scattered Clouds,300,2013-10-18 17:55:00
1:15 PM,50.2,31.1,48,29.99,10.0,NNW,9.2,18.4,N/A,,Clear,330,2013-10-18 18:15:00
1:35 PM,52.0,31.5,46,29.98,10.0,NW,10.4,17.3,N/A,,Clear,310,2013-10-18 18:35:00
1:55 PM,52.9,30.7,43,29.98,10.0,NW,6.9,16.1,N/A,,Scattered Clouds,310,2013-10-18 18:55:00
2:15 PM,53.8,30.2,41,29.97,10.0,WNW,9.2,16.1,N/A,,Scattered Clouds,300,2013-10-18 19:15:00
2:35 PM,52.0,28.8,41,29.97,10.0,NW,9.2,19.6,N/A,,Scattered Clouds,320,2013-10-18 19:35:00
2:55 PM,52.0,28.6,41,29.97,10.0,NW,9.2,12.7,N/A,,Scattered Clouds,320,2013-10-18 19:55:00
3:15 PM,52.0,28.4,40,29.97,10.0,NW,8.1,-,N/A,,Clear,320,2013-10-18 20:15:00
3:35 PM,52.0,27.7,39,29.97,10.0,NW,6.9,-,N/A,,Clear,310,2013-10-18 20:35:00
3:55 PM,52.0,28.2,40,29.97,10.0,NNW,8.1,-,N/A,,Clear,330,2013-10-18 20:55:00
4:15 PM,52.0,28.2,40,29.97,10.0,NW,8.1,-,N/A,,Clear,320,2013-10-18 21:15:00
4:35 PM,52.0,28.9,41,29.97,10.0,WNW,10.4,-,N/A,,Scattered Clouds,300,2013-10-18 21:35:00
4:55 PM,50.9,28.2,42,29.97,10.0,NW,6.9,-,N/A,,Scattered Clouds,320,2013-10-18 21:55:00
5:15 PM,49.5,27.1,42,29.97,10.0,WNW,8.1,-,N/A,,Scattered Clouds,290,2013-10-18 22:15:00
5:35 PM,49.5,27.5,43,29.97,10.0,WNW,4.6,-,N/A,,Scattered Clouds,290,2013-10-18 22:35:00
5:55 PM,49.5,27.9,43,29.97,10.0,West,5.8,-,N/A,,Clear,280,2013-10-18 22:55:00
6:15 PM,49.5,29.1,46,29.97,10.0,West,4.6,-,N/A,,Clear,270,2013-10-18 23:15:00
6:35 PM,49.3,30.0,48,29.97,10.0,West,3.5,-,N/A,,Clear,260,2013-10-18 23:35:00
6:55 PM,46.9,28.6,49,29.97,10.0,West,3.5,-,N/A,,Clear,270,2013-10-18 23:55:00
7:15 PM,46.9,29.1,50,29.97,10.0,West,3.5,-,N/A,,Clear,260,2013-10-19 00:15:00
7:35 PM,46.9,29.1,50,29.97,10.0,West,4.6,-,N/A,,Clear,270,2013-10-19 00:35:00
7:55 PM,45.9,28.8,51,29.97,10.0,West,4.6,-,N/A,,Clear,270,2013-10-19 00:55:00
8:15 PM,44.6,28.2,53,29.97,10.0,Calm,Calm,-,N/A,,Clear,0,2013-10-19 01:15:00
8:35 PM,43.2,28.6,56,29.97,10.0,WSW,3.5,-,N/A,,Clear,240,2013-10-19 01:35:00
8:55 PM,43.2,28.8,57,29.96,10.0,WSW,3.5,-,N/A,,Clear,240,2013-10-19 01:55:00
9:15 PM,43.2,29.1,58,29.96,10.0,WSW,4.6,-,N/A,,Clear,240,2013-10-19 02:15:00
9:35 PM,43.0,29.3,59,29.97,10.0,SW,4.6,-,N/A,,Clear,230,2013-10-19 02:35:00
9:55 PM,41.9,29.7,62,29.96,10.0,WSW,4.6,-,N/A,,Clear,240,2013-10-19 02:55:00
10:15 PM,41.9,29.3,61,29.96,10.0,WSW,4.6,-,N/A,,Clear,240,2013-10-19 03:15:00
10:35 PM,42.3,29.3,60,29.96,10.0,WSW,4.6,-,N/A,,Clear,240,2013-10-19 03:35:00
10:55 PM,41.9,29.5,61,29.96,10.0,SW,5.8,-,N/A,,Clear,230,2013-10-19 03:55:00
11:15 PM,41.9,29.5,61,29.95,10.0,WSW,6.9,-,N/A,,Clear,240,2013-10-19 04:15:00
11:35 PM,41.9,30.2,63,29.95,10.0,SW,5.8,-,N/A,,Clear,230,2013-10-19 04:35:00
11:55 PM,40.6,30.0,66,29.94,10.0,SW,4.6,-,N/A,,Clear,230,2013-10-19 04:55:00